2024-194C

Last updated on Thu Oct 31 2024 00:02:05 GMT+0000 (Coordinated Universal Time)

1 61685U 24194C 24304.42790892 -.00002334 73895-5 00000+0 0 9999 2 61685 41.5846 337.6433 0197112 136.4247 338.0813 15.80520491 82
UTC large
Height (km)
Speed (km/s)
/
Latitude / Longitude
Inclination (degrees)
Orbital Period (minutes)
Azimuth
Elevation
Range (km)
Doppler Factor

Next 0 passes for location: London (51.5072 / 0.1276)

Sorry there are no passes over London.